Regional Weather Roundup
Issued by NWS Albany, NY

Home | Current Version | Previous Version | Text Only | Print | Product List | Glossary On
Versions: 1 2 3 4 5 6 7 8 9 10 11 12 13 14 15 16 17 18 19 20 21 22 23 24 25 26 27 28 29 30 31 32 33 34 35 36 37 38 39 40 41 42 43 44 45 46 47 48
000
ASUS41 KALY 292110
RWRALY

NEW YORK STATE HOURLY WEATHER ROUNDUP
NATIONAL WEATHER SERVICE ALBANY NY
500 PM EDT MON JUN 29 2015

NOTE: "FAIR" INDICATES FEW OR NO CLOUDS BELOW 12,000 FEET WITH NO
SIGNIFICANT WEATHER AND/OR NO OBSTRUCTIONS TO VISIBILITY.

NYZ032-033-038>043-046>054-057>066-NYZ062>081-292200-
EAST


CITY           SKY/WX    TMP DP  RH WIND       PRES   REMARKS
ALBANY         PTSUNNY   72  58  61 SW10      29.87F
GLENS FALLS    CLOUDY    71  59  65 N6        29.83S
POUGHKEEPSIE   CLOUDY    74  58  57 SW10      29.88S
NEWBURGH       PTSUNNY   72  61  68 W14       29.90F
MONTGOMERY     CLOUDY    73  58  59 W5        29.89S
WHITE PLAINS   PTSUNNY   74  56  53 W8        29.90S
ISLIP          PTSUNNY   72  59  63 SW12      29.89S
NEW YORK CITY  MOSUNNY   77  53  43 W10       29.90S
CENTRAL PARK   MOSUNNY   76  55  48 VRB3      29.93S
$$

NYZ005>009-017-018-044>046-055-056-292200-
CENTRAL


CITY           SKY/WX    TMP DP  RH WIND       PRES   REMARKS
FULTON         SUNNY     69  55  60 W12       29.89F
SYRACUSE       PTSUNNY   69  57  65 NW9       29.89S
ROME           CLOUDY    67  58  72 VRB6      29.89F
ELMIRA         SUNNY     76  55  48 W9        29.89S
BINGHAMTON     SUNNY     69  56  62 VRB3      29.91F
MONTICELLO     CLOUDY    68  57  68 W3        29.93F
$$

NYZ026>034-041>043-292200-
NORTH


CITY           SKY/WX    TMP DP  RH WIND       PRES   REMARKS
WATERTOWN      MOSUNNY   65  57  75 W12       29.88S
FORT DRUM      NOT AVBL
MASSENA        CLOUDY    65  56  72 SW6       29.85F
SARANAC LAKE   CLOUDY    61  54  77 W7        29.86S
PLATTSBURGH    LGT RAIN  63  58  83 SE3       29.85R
$$

NYZ001>004-010>016-019>021-292200-
WEST


CITY           SKY/WX    TMP DP  RH WIND       PRES   REMARKS
NIAGARA FALLS  PTSUNNY   74  56  53 SW5       29.88F
BUFFALO        PTSUNNY   71  54  54 SW10      29.90S
DUNKIRK        PTSUNNY   70  59  68 NW6       29.90F
JAMESTOWN      CLOUDY    68  54  60 S6        29.94F
WELLSVILLE     MOSUNNY   70  49  47 N7        29.95F
ROCHESTER      PTSUNNY   75  54  47 NW7       29.89F
PENN YAN       SUNNY     73  54  51 W7        29.90F
$$

             KEY
       WCI = WIND CHILL INDEX
       VSB = VISIBILITY
       HX  = HEAT INDEX
$$


USA.gov is the U.S. government's official web portal to all federal, state and local government web resources and services.